User: anonymous   Login
Location: Newark
(22.8000°N, 86.1800°E)
Time: 06:06:01
(UTC+00:00)
Language:

CAS-4A - Orbit

View from above orbital plane
View from above orbital plane
View from above satellite
View from above satellite

Ground track
Ground track

The orbit data is extracted from the following two-line orbital elements,

1 42761U 17034D   20156.92018602  .00000046  00000-0  16280-4 0  9998
2 42761  43.0181  95.2191 0012709 311.5302  98.6316 15.09900896164078
Epoch (UTC): 04 June 2020 22:05:04
Eccentricity: 0.0012709
inclination: 43.0181°
perigee height: 528 km
apogee height: 545 km
right ascension of ascending node: 95.2191°
argument of perigee: 311.5302°
revolutions per day: 15.09900896
mean anomaly at epoch: 98.6316°
orbit number at epoch: 16407

The dashed part of the orbit path shows where the satellite is in the earth's shadow,  

DLR